Regional Weather Roundup
Issued by NWS Green Bay, WI

Home | Current Version | Previous Version | Graphics & Text | Print | Product List | Glossary Off
Versions: 1 2 3 4 5 6 7 8 9 10 11 12 13 14 15 16 17 18 19 20 21 22 23 24 25 26 27 28 29 30 31 32 33 34 35 36 37 38 39 40 41 42 43 44 45 46 47 48 49 50

000
ASUS43 KGRB 041211
RWRGRB

NORTH-CENTRAL AND NORTHEAST WISCONSIN REGIONAL WEATHER ROUNDUP
NATIONAL WEATHER SERVICE GREEN BAY WI
700 AM CDT SAT JUL 04 2015

WIZ005-009-010>012-018-019-041300-
NORTH CENTRAL WISCONSIN

CITY           SKY/WX    TMP DP  RH WIND       PRES   REMARKS
IRONWOOD       SUNNY     54  54 100 CALM      29.95R
MANITOWISH WTR SUNNY     56  56 100 CALM      29.98R
ARBOR VITAE    FOG       57  56  95 CALM      29.98R VSB 1/4
EAGLE RIVER    FOG       53  53 100 CALM      29.99R VSB 1/4
LAND O LAKES   FOG       53  53 100 CALM      30.00R VSB 1/2
RHINELANDER    FOG       57  56  96 CALM      29.99R VSB 1/2
PHILLIPS       SUNNY     55  55 100 CALM      29.98R
ANTIGO         SUNNY     56  56 100 CALM      29.99R FOG
TOMAHAWK       SUNNY     54  53  97 CALM      29.98R FOG
MERRILL        SUNNY     55  55 100 CALM      29.98S FOG
$$

WIZ013-073-041300-
NORTHEAST WISCONSIN

CITY           SKY/WX    TMP DP  RH WIND       PRES   REMARKS
IRON MOUNTAIN  SUNNY     59  57  93 NW3       29.96R FOG
MARINETTE      SUNNY     61  55  82 N3        29.95R
OCONTO         MOSUNNY   60  60 100 CALM      29.95R
$$

WIZ017-030-035>037-045-041300-
CENTRAL WISCONSIN

CITY           SKY/WX    TMP DP  RH WIND       PRES   REMARKS
MEDFORD        SUNNY     56  56 100 CALM      29.98R FOG
WAUSAU         SUNNY     60  57  89 E3        29.96R
MOSINEE        MOSUNNY   57  57 100 CALM      29.99R
MARSHFIELD     SUNNY     62  57  83 CALM      29.97R
WISC RAPIDS    SUNNY     62  58  86 CALM      29.98R
STEVENS POINT  CLOUDY    57  55  95 CALM      29.98R
WAUPACA        MOSUNNY   61  61  98 CALM      29.97R
SHAWANO        SUNNY     63  59  86 CALM      29.96S
CLINTONVILLE   SUNNY     61  57  88 CALM      29.96R
$$

WIZ038-039-048-051-041300-
FOX VALLEY

CITY           SKY/WX    TMP DP  RH WIND       PRES   REMARKS
NWS GREEN BAY  SUNNY     63  59  87 CALM      29.95R
APPLETON       MOSUNNY   63  61  94 W9        29.97R
OSHKOSH        PTSUNNY   65  59  81 W5        29.96R
FOND DU LAC    PTSUNNY   62  58  86 SW3       29.97R
$$

WIZ022-050-052-041300-
EAST CENTRAL WISCONSIN

CITY           SKY/WX    TMP DP  RH WIND       PRES   REMARKS
STURGEON BAY   SUNNY     63  59  88 NW3       29.97R
MANITOWOC      SUNNY     66  61  84 MISG      29.95R
SHEBOYGAN      MOSUNNY   63  59  87 W5        29.96R
$$

LMZ563-521-522-541>543-041300-
LAKESHORE

STATION/POSITION TIME  TEMP    WIND        PRES    VSBY  WAVE
                       AIR SEA DIR/SP/G                  HT/PER
                 (UTC) (F)     (DEG/KT/KT) (MB)    (MI)  (FT/S)
SHEBOYGAN LKSHOR 1200   65     260/ 10/ 11 1014.4R
KEWAUNEE LKSHORE 1100   62     290/  5/  7 1012.8R
ALGOMA MARINA    1126          300/  2/  5   N/A
NORTHPORT PIER   1100   62     340/  5/  6 1013.5R
N MID LAKE BUOY  1150   49 43  340/  2/  4 1014.1R         1/ 4
SISTER BAY LKSHO 1114   63        CALM       N/A
CHAMBERS ISLAND  1100   64     360/  8/  9 1013.9R
MENOMINEE LKSHOR 1100   61     330/  5/  6 1014.2R
$$



USA.gov is the U.S. government's official web portal to all federal, state and local government web resources and services.